パンスターズ彗星

C/2017 E3 ( PanSTARRS )

English version
Home page
Updated on May 23, 2019

---------------------------------------------------------------------

・ プロフィール

発見日 2017年3月7日
発見光度 19.2等
発見者 Pan-STARRS 1 telescope (Haleakala)

・ 写真集

・ 軌道要素

Epoch 2017 June 16.0 TT = JDT 2457920.5
T 2017 May 31.57312 TT                                  MPCW
q   5.9152605            (2000.0)            P               Q
z  -0.0008424      Peri.  333.66372     -0.77474362     -0.14231805
 +/-0.0000010      Node   220.75856     -0.26823081     -0.80833605
e   1.0049829      Incl.   70.66502     -0.57255965     +0.57126036
From 369 observations 2017 Mar. 7-2019 May 10, mean residual 0".5.

・ 光度変化

        m1 = 5.0 + 5 logΔ + 10.0 log r

---------------------------------------------------------------------

軌道要素はM.P.E.C. 2019-J142に掲載されたものです。
光度グラフはComet for Windowsで作成したものです。

---------------------------------------------------------------------

Copyright(C) Seiichi Yoshida (comet@aerith.net). All rights reserved.